SUPERBIRD 8 (43271 NORAD) Tracking and Keplerian Element Data

This shows tracking and keplerian element data for the satellite.

Feedback or suggestion? Click here.




ElementValue
Catalog43271
NameSUPERBIRD 8
Epoch Orbit383
Epoch Day110.19157986
Epoch Year2019
RAAN239.176
Inclination0.0101
Eccentricity0.0001287
Argument of Perigee170.8153
Mean Anonmoly28.9426
Mean Motion1.00272098
Decay Rate-1.11E-06
L11 43271U 18033A 19110.19157986 -.00000111 00000-0 00000+0 0 9993
L22 43271 0.0101 239.1760 0001287 170.8153 28.9426 1.00272098 3836

Live tracking and technical data element details for SUPERBIRD 8 (NORAD 43271). SUPERBIRD 8 can be tracked NOW for your location showing map with azimuth and elevation plus other details from your city location.

Track the satellite on the map from your city or location and see movement details for azimuth, elevation, latitude, longitude, range, height, and movement on the map or in text.







IsCatalogInMostPopularTable: catalog: 43271, numindb: 296
Update: records affected: 1



GetName: 43271 SUPERBIRD 8

Hit Count: updated at: Sat, 20 Apr 2019 20:18:42 GMT